• In Hungary
  • List of Countries
  • For 7 days
  • Water Temperature
  • Satellite Maps
  • Weather Map
  • News
  • Weather Widgets
  • user-avatar
    Login

    Hourly Weather Sloboda-Bolekhivs'ka

    Today, 22 October, Monday

    Time Temperature Precipitation Wind Pressure Humidity
    00:00 +5°C° 0 mm 0 mps 720 mmHg 97%
    01:00 +5°C° 0 mm 0 mps 720 mmHg 96%
    02:00 +5°C° 0 mm 0 mps 720 mmHg 96%
    03:00 +5°C° 0 mm 0 mps 720 mmHg 97%
    04:00 +4°C° 0 mm 0 mps 719 mmHg 100%
    05:00 +5°C° 0 mm 1 mps 719 mmHg 99%
    06:00 +5°C° 0 mm 1 mps 719 mmHg 98%
    07:00 +5°C° 0 mm 1 mps 720 mmHg 95%
    08:00 +6°C° 0 mm 1 mps 720 mmHg 93%
    09:00 +6°C° 0 mm 0 mps 720 mmHg 94%
    10:00 +8°C° 0 mm 1 mps 720 mmHg 97%
    11:00 +9°C° 0 mm 1 mps 720 mmHg 99%
    12:00 +9°C° 0 mm 1 mps 720 mmHg 99%
    13:00 +9°C° 0 mm 1 mps 719 mmHg 100%
    14:00 +10°C° 0 mm 1 mps 719 mmHg 100%
    15:00 +10°C° 0 mm 1 mps 719 mmHg 100%
    16:00 +9°C° 0 mm 1 mps 718 mmHg 100%
    17:00 +9°C° 0 mm 1 mps 718 mmHg 100%
    18:00 +9°C° 0 mm 1 mps 718 mmHg 100%
    19:00 +8°C° 0 mm 0 mps 718 mmHg 100%
    20:00 +8°C° 0 mm 0 mps 718 mmHg 100%
    21:00 +7°C° 0 mm 0 mps 718 mmHg 100%
    22:00 +8°C° 0 mm 1 mps 718 mmHg 100%
    23:00 +6°C° 0 mm 2 mps 717 mmHg 98%

    Tomorrow, 23 October, Tuesday

    Time Temperature Precipitation Wind Pressure Humidity
    00:00 +6°C° 0 mm 2 mps 717 mmHg 93%
    01:00 +5°C° 0 mm 2 mps 717 mmHg 91%
    02:00 +4°C° 0 mm 3 mps 717 mmHg 92%
    03:00 +4°C° 0 mm 3 mps 716 mmHg 95%
    04:00 +4°C° 0 mm 3 mps 716 mmHg 97%
    05:00 +4°C° 0.1 mm 3 mps 715 mmHg 100%
    06:00 +5°C° 0.3 mm 4 mps 715 mmHg 100%
    07:00 +5°C° 0.3 mm 4 mps 716 mmHg 100%
    08:00 +5°C° 0.1 mm 4 mps 716 mmHg 100%
    09:00 +5°C° 0 mm 4 mps 715 mmHg 100%
    10:00 +5°C° 0 mm 4 mps 715 mmHg 99%
    11:00 +6°C° 0 mm 4 mps 715 mmHg 95%
    12:00 +6°C° 0 mm 4 mps 715 mmHg 91%
    13:00 +6°C° 0 mm 4 mps 714 mmHg 89%
    14:00 +7°C° 0 mm 4 mps 713 mmHg 86%
    15:00 +7°C° 0 mm 4 mps 713 mmHg 88%
    16:00 +6°C° 0 mm 5 mps 712 mmHg 90%
    17:00 +4°C° 0 mm 6 mps 710 mmHg 93%
    18:00 +3°C° 0.1 mm 6 mps 709 mmHg 100%
    19:00 +3°C° 0.3 mm 6 mps 708 mmHg 100%
    20:00 +4°C° 0.3 mm 8 mps 707 mmHg 97%
    21:00 +3°C° 0 mm 10 mps 706 mmHg 97%
    22:00 +3°C° 0.1 mm 10 mps 705 mmHg 98%
    23:00 +2°C° 0.2 mm 10 mps 705 mmHg 100%

    Day after tomorrow, 24 October, Wednesday

    Time Temperature Precipitation Wind Pressure Humidity
    00:00 +2°C° 0.3 mm 10 mps 704 mmHg 100%
    01:00 +2°C° 0.4 mm 9 mps 703 mmHg 100%
    02:00 +2°C° 0.4 mm 9 mps 703 mmHg 100%
    03:00 +3°C° 0.3 mm 9 mps 702 mmHg 100%
    04:00 +3°C° 0.3 mm 9 mps 701 mmHg 100%
    05:00 +3°C° 0.4 mm 9 mps 700 mmHg 100%
    06:00 +3°C° 0.3 mm 9 mps 699 mmHg 100%
    07:00 +3°C° 0.2 mm 9 mps 699 mmHg 98%
    08:00 +3°C° 0.2 mm 9 mps 698 mmHg 100%
    09:00 +3°C° 0.8 mm 10 mps 699 mmHg 97%
    10:00 +3°C° 0.2 mm 9 mps 700 mmHg 95%
    11:00 +2°C° 0 mm 9 mps 700 mmHg 93%
    12:00 +2°C° 0 mm 9 mps 701 mmHg 89%
    13:00 +1°C° 0 mm 9 mps 701 mmHg 87%
    14:00 +1°C° 0 mm 9 mps 701 mmHg 90%
    15:00 +1°C° 0 mm 9 mps 701 mmHg 92%
    16:00 +1°C° 0 mm 9 mps 701 mmHg 94%
    17:00 0°C° 0 mm 8 mps 702 mmHg 96%
    18:00 -1°C° 0 mm 7 mps 702 mmHg 100%
    19:00 -1°C° 0.1 mm 7 mps 703 mmHg 100%
    20:00 -1°C° 0.2 mm 8 mps 703 mmHg 100%
    21:00 -1°C° 0.1 mm 9 mps 703 mmHg 100%
    22:00 -3°C° 0.1 mm 9 mps 703 mmHg 100%
    23:00 -3°C° 0.1 mm 10 mps 704 mmHg 100%

    25 October, Thursday

    Time Temperature Precipitation Wind Pressure Humidity
    00:00 -3°C° 0.1 mm 10 mps 704 mmHg 100%
    01:00 -3°C° 0.1 mm 10 mps 705 mmHg 100%
    02:00 -3°C° 0.2 mm 10 mps 705 mmHg 100%
    03:00 -3°C° 0.3 mm 9 mps 706 mmHg 100%
    04:00 -2°C° 0.2 mm 8 mps 706 mmHg 100%
    05:00 -2°C° 0.3 mm 8 mps 707 mmHg 100%
    06:00 -2°C° 0.2 mm 8 mps 707 mmHg 100%
    07:00 -2°C° 0.1 mm 8 mps 708 mmHg 100%
    08:00 -2°C° 0.1 mm 7 mps 709 mmHg 100%
    09:00 -2°C° 0 mm 7 mps 709 mmHg 100%
    10:00 -1°C° 0 mm 7 mps 710 mmHg 100%
    11:00 +1°C° 0 mm 6 mps 710 mmHg 100%
    12:00 +1°C° 0 mm 6 mps 710 mmHg 99%
    13:00 +2°C° 0 mm 6 mps 711 mmHg 95%
    14:00 +2°C° 0 mm 6 mps 711 mmHg 89%

    26 October, Friday

    Time Temperature Precipitation Wind Pressure Humidity

    27 October, Saturday

    Time Temperature Precipitation Wind Pressure Humidity

    28 October, Sunday

    Time Temperature Precipitation Wind Pressure Humidity
    Show more